Flag Weather past 2 weeks in Hamburg, Hamburg, Germany

Now
48 °F

Sprinkles. Passing clouds.


Feels Like: 44 °F
Forecast: 38 / 47 °F
Wind: 9 mph from West

Location: Hamburg-Fuhlsbuettel

Current Time: Nov 24, 2014 at 4:33:29 PM

Latest Report: Nov 24, 2014 at 4:20 PM


Visibility: N/A

Pressure: 30.18 "Hg

Humidity: 82%

Dew point: 43 °F

Location of HamburgLocation

Historic Weather in Hamburg — Graph

°F

Hamburg temperature yesterday

Maximum temperature yesterday: 48 °F (at 2:50 PM)
Minimum temperature yesterday: 41 °F (at 12:20 AM)
Average temperature yesterday: 44 °F

Past Weeks' High & Low Weather Summary

 TemperatureHumidityPressure
High54 °F (Nov 14, 12:50 PM)100% (Nov 9, 10:20 PM)30.36 "Hg (Nov 9, 10:20 PM)
Low28 °F (Nov 21, 2:20 AM)76% (Nov 20, 1:20 PM)29.56 "Hg (Nov 16, 12:20 PM)
Average46 °F92%29.94 "Hg
* Reported Nov 9 3:20 PM — Nov 24 3:20 PM, Hamburg, Weather by CustomWeather, © 2014

Note: Actual official high and low records may vary slightly from our data, if they occured in-between our weather recording intervals... More about our weather records

Advertising

Hamburg weather history for previous 24 hours

 ConditionsComfort  
Time TempWeatherWind HumidityBarometerVisibility
3:20 PM
Nov 24
48 °FPassing clouds.9 mph76%30.18 "HgN/A
2:50 PM50 °FScattered clouds.12 mph76%30.15 "HgN/A
2:20 PM50 °FScattered clouds.12 mph76%30.15 "HgN/A
1:50 PM50 °FPassing clouds.10 mph76%30.15 "HgN/A
1:20 PM50 °FPassing clouds.10 mph76%30.15 "HgN/A
12:50 PM50 °FPassing clouds.8 mph82%30.15 "HgN/A
12:20 PM50 °FPassing clouds.9 mph82%30.15 "HgN/A
11:50 AM48 °FPassing clouds.10 mph87%30.15 "HgN/A
11:20 AM48 °FScattered clouds.8 mph87%30.12 "HgN/A
10:50 AM46 °FLight rain. Broken clouds.7 mph93%30.12 "HgN/A
10:20 AM46 °FLight rain. Broken clouds.10 mph93%30.12 "HgN/A
9:50 AM46 °FBroken clouds.8 mph93%30.12 "HgN/A
9:20 AM46 °FLight rain. Partly sunny.8 mph93%30.09 "Hg5 mi
8:50 AM46 °FPartly sunny.10 mph93%30.07 "Hg5 mi
8:20 AM46 °FLight rain. Broken clouds.10 mph93%30.07 "Hg5 mi
7:50 AM46 °FLight rain. Passing clouds.12 mph100%30.04 "Hg5 mi
7:20 AM48 °FRain. Passing clouds.16 mph94%30.04 "Hg4 mi
6:50 AM48 °FLight rain. Passing clouds.10 mph100%30.01 "Hg5 mi
6:20 AM48 °FLight rain. Partly cloudy.10 mph100%29.98 "Hg5 mi
5:50 AM50 °FRain. Partly cloudy.9 mph94%29.98 "Hg5 mi
5:20 AM50 °FLight rain. Fog.10 mph94%29.95 "Hg3 mi
4:50 AM50 °FPassing clouds.10 mph94%29.92 "Hg3 mi
4:20 AM50 °FPassing clouds.7 mph88%29.92 "HgN/A
3:50 AM48 °FPassing clouds.6 mph87%29.89 "HgN/A
3:20 AM48 °FPassing clouds.9 mph87%29.92 "HgN/A
2:50 AM48 °FPassing clouds.10 mph82%29.92 "HgN/A
2:20 AM46 °FPartly cloudy.9 mph87%29.92 "HgN/A
1:50 AM46 °FClear.10 mph87%29.92 "Hg10 mi
1:20 AM46 °FClear.10 mph87%29.92 "Hg10 mi
12:20 AM46 °FClear.10 mph87%29.95 "Hg10 mi
11:50 PM
Nov 23
46 °FClear.10 mph87%29.95 "Hg10 mi
11:20 PM48 °FClear.12 mph82%29.95 "Hg10 mi
10:50 PM46 °FClear.10 mph87%29.98 "Hg10 mi
10:20 PM46 °FClear.13 mph87%29.98 "Hg10 mi
9:20 PM46 °FClear.13 mph87%29.98 "Hg10 mi
8:50 PM46 °FClear.14 mph87%29.98 "Hg10 mi
8:20 PM46 °FClear.15 mph87%29.98 "Hg10 mi
7:50 PM46 °FClear.15 mph87%30.01 "Hg10 mi
7:20 PM46 °FClear.13 mph87%30.01 "Hg10 mi
6:50 PM46 °FClear.16 mph87%30.01 "Hg10 mi
6:20 PM46 °FClear.15 mph87%30.01 "Hg10 mi
5:50 PM46 °FClear.14 mph87%30.01 "Hg10 mi
5:20 PM46 °FClear.12 mph87%30.04 "Hg10 mi
4:50 PM46 °FClear.10 mph87%30.04 "Hg10 mi
4:20 PM48 °FClear.12 mph82%30.04 "Hg10 mi
Weather by CustomWeather, © 2014

See weather overviewHow to use our weather pages